Wind_Speed
11 10 10 9 7 7 9 11 12 11 10 9 10 9 8 7 6 6 6 5 6 7 8 8 9 10 11 10 11 12 11 12 12
13 12 11 10 8 8 10 12 12 10 9 8 9 8 7 6 5 4 4 4 5 6 7 8 9 10 11 11 11 11 10 11 12
15 14 13 11 10 10 11 11 11 10 9 8 7 5 5 4 3 3 2 2 4 5 6 8 9 9 10 10 10 10 11 11 12
16 16 16 14 12 12 13 12 10 10 9 8 7 7 5 5 4 2 1 1 2 3 5 6 7 9 10 10 9 9 9 10 11
19 19 18 15 14 14 14 12 11 10 9 8 7 6 5 5 5 4 3 1 2 3 5 6 8 10 11 11 10 9 9 10 11
21 21 20 17 17 17 15 13 12 10 9 8 7 7 6 6 6 5 4 3 2 3 6 7 8 10 11 11 11 11 10 10 12
23 23 22 19 19 18 17 14 12 10 9 8 7 7 7 7 7 5 5 4 3 4 6 8 8 10 11 11 11 10 10 10 12
26 26 24 21 21 20 18 15 13 12 10 9 8 8 8 7 7 7 5 5 6 6 7 8 9 9 11 11 12 11 11 12 14
30 28 25 22 21 20 18 16 14 12 11 10 9 9 8 8 8 8 6 6 7 7 8 9 10 12 12 13 13 12 13 14 14
29 29 25 24 24 22 19 17 14 13 12 11 10 10 10 9 9 8 8 8 8 8 9 8 10 12 13 13 14 14 15 15 15
29 29 26 26 26 23 20 17 15 15 13 13 11 12 11 9 9 9 9 10 9 9 9 10 10 10 12 13 14 14 14 14 14
32 31 30 30 27 24 21 18 16 15 13 12 13 11 11 11 11 9 11 10 10 10 10 11 12 12 12 13 14 14 15 15 16
34 34 33 31 29 25 22 20 17 16 15 15 14 14 13 13 11 11 10 11 11 12 11 11 12 13 12 13 13 14 14 16 17
34 35 35 34 30 27 25 22 20 18 17 16 16 16 16 15 14 13 13 14 14 15 14 13 13 14 15 14 15 16 16 16 17
37 37 38 36 32 30 27 24 21 19 18 18 17 17 18 17 16 16 16 19 18 19 18 16 16 17 16 16 16 17 17 17 18
39 39 40 37 34 31 28 26 24 21 21 20 19 19 21 21 19 20 21 22 22 22 20 19 19 19 18 16 16 18 18 19 20
39 40 41 39 36 34 31 27 24 24 24 20 20 21 23 25 22 23 23 24 23 23 22 21 21 22 21 20 19 19 20 20 21
40 40 41 40 37 34 31 27 25 26 25 22 20 20 21 21 23 23 28 26 24 23 21 20 19 19 20 22 23 22 21 21 25
41 40 41 39 38 36 33 30 30 29 27 22 18 21 23 29 26 28 35 37 29 25 25 25 26 27 26 26 29 30 29 30 34
40 40 40 40 39 38 35 34 35 34 29 22 17 22 21 23 30 31 36 30 27 28 28 28 20 23 25 25 29 32 33 32 29
Wind_Direction
213 221 208 215 219 199 184 166 155 155 152 151 140 139 136 128 128 116 99 87 71 58 48 36 26 19 16 9 11 13 14 16 19
208 221 217 213 225 206 191 175 161 158 158 154 143 145 142 136 136 129 115 92 67 52 43 32 24 18 8 5 8 12 15 15 17
209 215 215 217 220 206 195 183 170 165 165 161 146 154 146 145 158 143 116 70 57 38 23 19 18 13 4 5 7 11 11 13 11
210 217 211 216 216 207 197 189 182 179 175 168 168 169 175 180 186 207 196 29 24 21 15 9 6 4 357 358 1 5 1 3 2
214 215 218 214 210 206 199 196 191 189 189 180 186 182 202 197 206 221 226 259 336 347 353 358 357 354 349 351 353 350 351 354 355
218 216 219 217 208 204 200 200 200 199 202 202 204 202 209 228 234 234 246 251 289 327 336 346 347 344 343 344 342 343 344 348 352
219 218 219 218 209 203 202 203 207 209 215 217 222 229 220 229 234 246 254 270 295 319 329 334 338 338 337 337 338 336 341 343 346
219 217 219 216 211 204 205 206 213 218 225 232 238 241 240 238 236 243 253 273 293 311 319 324 324 327 331 332 344 341 335 340 342
218 216 218 215 210 206 205 210 218 225 235 240 242 251 250 245 248 252 261 269 284 301 309 316 319 324 330 328 339 336 336 339 337
215 215 216 212 204 207 210 215 222 230 238 244 245 251 254 254 255 262 268 276 286 298 302 309 312 317 321 328 328 331 335 335 332
211 214 214 207 206 208 213 219 225 232 236 239 244 249 252 252 253 259 266 272 281 292 294 299 301 304 313 321 322 322 321 322 323
211 212 211 209 208 210 215 221 227 237 240 243 239 242 252 257 258 265 263 261 276 281 287 296 301 306 307 309 311 312 315 316 317
210 211 210 210 210 213 218 223 229 237 237 238 240 245 250 259 269 276 280 282 289 287 286 290 292 296 299 299 301 299 303 303 305
214 214 209 210 212 215 220 226 232 235 239 241 244 248 255 260 265 270 274 282 286 283 285 286 289 288 286 287 289 290 295 300 305
216 215 211 212 214 218 223 229 234 239 240 243 246 253 259 264 267 272 274 277 277 280 283 282 280 278 280 282 286 292 296 300 305
218 216 213 213 218 222 227 233 236 239 242 245 250 257 264 272 270 276 279 280 278 279 281 283 279 277 278 283 292 296 299 304 309
220 216 215 217 220 225 230 237 240 244 246 249 255 262 268 273 268 277 278 275 276 280 280 279 276 278 278 279 282 289 295 300 306
221 218 217 220 223 228 235 239 244 246 247 246 250 256 269 284 280 277 280 278 269 270 268 268 270 276 283 287 288 290 295 302 310
218 218 219 222 226 227 231 235 239 238 236 241 247 262 278 284 278 283 292 278 259 253 261 266 275 274 279 284 285 288 291 298 305
218 221 224 226 228 230 230 229 230 233 234 230 250 267 284 281 284 287 282 257 258 253 257 269 289 280 284 288 287 287 294 299 299
Height
3168 3170 3170 3171 3171 3171 3170 3170 3170 3171 3172 3174 3176 3176 3176 3177 3177 3177 3176 3176 3175 3175 3174 3173 3172 3170 3169 3167 3165 3164 3163 3161 3159
3167 3169 3170 3170 3171 3171 3172 3171 3170 3172 3173 3174 3176 3176 3177 3177 3177 3177 3176 3176 3176 3175 3174 3173 3172 3171 3169 3168 3167 3165 3163 3161 3160
3166 3167 3169 3170 3171 3172 3172 3172 3172 3172 3174 3175 3176 3176 3177 3178 3178 3177 3177 3177 3176 3175 3175 3174 3172 3171 3169 3168 3166 3165 3164 3162 3161
3165 3167 3168 3169 3170 3172 3172 3173 3173 3173 3174 3175 3176 3176 3176 3177 3177 3177 3177 3176 3176 3175 3174 3173 3172 3170 3169 3168 3167 3166 3164 3162 3161
3164 3165 3167 3168 3169 3171 3172 3173 3173 3174 3174 3175 3175 3177 3176 3176 3176 3176 3176 3176 3176 3176 3175 3173 3172 3171 3169 3168 3167 3165 3164 3163 3161
3162 3163 3165 3167 3168 3170 3171 3172 3173 3173 3174 3174 3174 3175 3176 3176 3176 3176 3176 3175 3174 3174 3174 3173 3172 3170 3169 3168 3167 3165 3164 3163 3162
3159 3161 3163 3165 3167 3168 3170 3171 3173 3173 3173 3173 3173 3173 3174 3174 3174 3175 3176 3175 3174 3173 3173 3172 3171 3170 3168 3167 3166 3164 3163 3162 3160
3155 3158 3161 3163 3165 3166 3168 3170 3171 3172 3172 3172 3172 3173 3174 3173 3174 3174 3174 3174 3174 3173 3171 3171 3170 3168 3167 3166 3165 3164 3162 3161 3159
3152 3155 3158 3161 3163 3165 3167 3168 3170 3171 3171 3171 3171 3171 3172 3172 3172 3172 3172 3172 3172 3171 3170 3169 3168 3167 3166 3164 3164 3162 3161 3159 3158
3148 3152 3156 3158 3160 3163 3165 3166 3168 3169 3169 3169 3169 3170 3170 3171 3171 3171 3171 3170 3170 3169 3169 3168 3167 3165 3164 3163 3162 3161 3159 3158 3156
3144 3149 3153 3156 3157 3160 3162 3164 3165 3166 3167 3167 3167 3168 3168 3168 3168 3168 3169 3168 3167 3167 3166 3165 3165 3164 3162 3161 3160 3158 3156 3155 3153
3140 3145 3149 3152 3155 3157 3159 3161 3163 3164 3164 3165 3165 3165 3166 3166 3166 3166 3166 3166 3165 3165 3164 3162 3162 3161 3159 3158 3157 3155 3154 3152 3151
3135 3140 3145 3148 3151 3153 3156 3157 3159 3161 3162 3162 3162 3161 3161 3162 3164 3164 3163 3163 3163 3163 3161 3160 3159 3158 3156 3155 3154 3152 3150 3148 3147
3131 3135 3140 3144 3147 3149 3152 3154 3156 3157 3158 3159 3159 3158 3158 3158 3159 3160 3160 3160 3160 3159 3158 3157 3156 3154 3153 3151 3150 3148 3147 3146 3144
3126 3130 3135 3139 3142 3145 3148 3150 3152 3153 3154 3154 3155 3154 3154 3153 3154 3155 3156 3156 3155 3155 3154 3153 3151 3150 3149 3147 3146 3146 3144 3143 3141
3122 3126 3130 3134 3137 3141 3143 3145 3147 3148 3148 3149 3149 3150 3150 3151 3149 3149 3150 3150 3150 3150 3150 3149 3147 3147 3146 3144 3143 3142 3141 3139 3139
3117 3121 3125 3129 3133 3135 3137 3140 3142 3143 3143 3144 3145 3145 3146 3146 3144 3145 3145 3145 3144 3145 3145 3145 3144 3143 3142 3140 3138 3137 3136 3135 3134
3110 3116 3120 3124 3127 3131 3133 3136 3137 3137 3138 3139 3139 3139 3140 3140 3140 3139 3140 3141 3140 3140 3140 3140 3139 3138 3138 3136 3135 3134 3132 3130 3129
3103 3110 3114 3118 3122 3124 3126 3129 3130 3130 3130 3132 3132 3133 3133 3133 3135 3135 3135 3134 3134 3134 3135 3135 3134 3133 3132 3131 3130 3128 3127 3126 3124
3101 3105 3109 3113 3116 3118 3118 3120 3119 3120 3122 3123 3125 3126 3126 3125 3128 3127 3126 3125 3127 3127 3128 3129 3127 3127 3125 3125 3124 3123 3121 3119 3116